Vertical_Velocity
0 -1 -2 -1 -1 -2 -3 -1 -3 3 3 -2 4 4 2 -0 -3 -1 -2 -4 1 0 2 2 -0 1 0 -1 0 1 -1 -2 -2 -2 -2 -3 -1 3 3 3 4 3 1 2 -0 -3 -1 -1 -1
-2 -2 -1 2 -1 -0 -5 3 -0 -0 -1 -1 -3 -1 -1 2 2 2 1 0 1 1 -0 -2 -3 -2 -2 -2 -0 -1 -0 -1 -2 -3 -2 -3 -3 -4 -4 -2 3 2 3 1 0 0 0 2 1
-1 -0 -1 -0 -3 -2 -3 -1 1 3 5 1 -0 0 2 0 0 -0 0 0 1 0 0 1 1 -1 -4 -2 -7 -1 -2 -2 -3 -2 -2 -2 -2 -1 -1 -4 -3 -4 1 3 7 1 -1 -2 -1
-3 -3 -1 -1 3 -2 -1 1 0 -4 -3 -0 -0 -1 3 1 0 1 0 -0 -1 -1 1 1 1 -3 -3 1 2 -4 -4 1 -1 -0 -1 -3 -3 -2 -1 -2 -1 -3 -4 -2 0 3 -2 10 3
-2 -3 1 -1 -2 -2 -1 -0 -0 -2 -4 -2 1 0 3 1 0 -0 0 3 -0 0 -3 -3 -2 -3 -1 -1 -1 -3 1 -1 -2 -1 -1 -0 2 -3 -3 -3 -3 -1 -3 -4 -3 -3 0 3 8
-1 -0 -1 2 6 4 -4 -4 2 4 4 1 2 -1 -2 -1 -1 1 3 -3 -6 -5 -3 -1 -4 -1 2 -1 -1 1 4 -2 -3 -2 2 -2 -5 1 -0 -1 -3 -2 -2 -1 0 -3 -3 -1 4
-2 -4 -0 -0 -3 2 3 -0 -4 1 1 -0 -3 -4 -1 0 1 -1 -0 -2 -1 -3 1 2 -0 -3 -4 -2 -2 -2 -2 1 1 0 -1 -0 -2 -0 4 4 1 -2 -0 -2 -2 -0 -2 -1 -4
-4 -1 -2 0 1 2 -3 1 3 2 0 -1 -4 -2 0 -3 -2 -0 -1 0 4 6 2 6 7 5 3 4 -2 -3 -4 -1 2 4 2 -7 3 -7 -0 0 1 -2 2 1 -1 -2 -3 -1 1
-1 -1 -2 -0 1 5 5 5 4 1 2 2 -2 -1 -1 -2 0 -2 -1 -5 -6 -8 -9 -5 -2 -2 -3 1 -0 4 1 0 -2 -1 1 3 -0 2 -5 -3 -4 3 3 0 3 0 -1 -3 3
3 2 3 -0 -3 -1 0 1 1 -1 -4 -3 -2 -1 -1 -5 -4 -3 1 2 -4 -7 -4 -8 -4 -5 -4 -2 1 4 0 6 8 2 -8 -4 1 3 -1 -3 -2 -6 2 -1 -2 1 0 2 -1
0 -1 -2 -1 4 1 0 0 -2 -1 1 3 1 -1 -2 -2 0 0 2 2 2 3 1 3 4 1 2 -4 -0 -5 -10 -2 -2 -3 4 -5 -6 1 1 2 1 -1 -3 -1 1 0 1 2 1
-1 2 -0 1 -2 -3 -3 -3 -5 -2 -1 1 2 1 1 -1 -2 -5 -1 1 3 2 0 1 1 -1 -7 -7 -0 -0 -3 -1 -3 -13 -4 -0 -1 7 3 -4 -2 -3 1 -2 0 3 -2 -2 1
2 2 3 1 1 -1 1 1 3 0 1 -1 -3 -1 -3 -3 -2 2 -5 0 -4 -1 2 -4 -9 -9 -9 -6 -8 -5 -3 -1 -4 3 4 -6 -8 -6 1 3 0 -0 -1 -4 -2 2 -1 -1 -1
-1 -1 0 2 -0 -0 3 3 0 3 -4 -2 0 -3 -2 3 8 2 -1 -2 5 2 -6 -6 -5 -4 -5 -6 -5 -4 -6 -3 -5 -5 -5 2 -6 -0 -11 -7 -8 -2 5 2 -4 -6 2 7 -0
-0 -2 0 -0 0 2 -1 2 1 1 3 3 -1 1 -2 1 -7 -5 -5 2 -6 -3 -4 -2 1 -2 -4 -1 -4 -4 -4 -5 -3 -3 -6 -4 -5 -1 -7 -0 1 -1 -6 -1 3 4 -8 -4 2
2 4 7 7 0 4 7 1 5 0 1 -2 -8 -7 3 -2 -4 -5 -1 -1 0 1 2 -1 -3 -4 -2 0 -1 -4 -8 -6 -7 -5 -3 -4 -2 -4 -1 -2 -7 -3 -5 -6 -0 2 2 -0 -5
-2 -2 -5 -1 1 1 0 -4 -1 -5 -1 -8 -7 0 3 -0 1 0 1 0 -1 -0 -0 -0 2 0 1 2 1 -1 -3 -2 -6 -7 -5 -4 -3 -3 -4 1 7 2 -1 -6 -5 -0 3 -0 3
-5 -4 -3 -1 -5 -6 -8 -5 -8 -2 -1 -1 -0 3 3 0 -1 3 3 2 -2 0 -5 -5 -6 -5 -4 -3 -2 -2 -0 -1 -2 -3 -7 -8 -7 -5 -3 -3 -0 4 -5 -1 -0 -2 -1 -2 5
3 1 -2 -4 2 3 -2 -1 1 7 -2 -3 1 4 9 3 1 1 -3 -2 1 -3 -1 -2 4 0 3 0 3 0 -0 0 -1 -1 -0 -2 -4 -6 -7 -3 -2 -1 1 -1 2 -0 -4 -5 4
-2 -3 -3 -3 3 1 -3 1 -1 -1 1 -1 -2 -1 -4 3 -1 -1 1 0 -3 -1 -2 -2 2 -1 -2 -2 -1 -1 1 -1 -0 1 -0 -0 -2 -3 -2 -3 -1 1 0 -0 2 -1 1 -3 0
-1 -0 2 1 0 -1 -0 6 -0 -2 -0 -5 -5 -5 -4 -6 3 1 1 0 0 -0 -0 -0 -3 -3 -2 2 -0 1 -2 -5 -3 -3 -1 -3 -5 -4 -3 -2 -1 1 -1 4 1 0 1 2 -1
0 -2 -1 -2 2 -4 5 -13 -2 -6 -4 -8 -9 3 -1 4 1 -2 0 -0 2 0 -1 -2 -3 -1 -4 -5 -2 -5 -5 1 -0 2 2 0 -2 -3 -2 -0 -3 0 0 -0 3 1 1 1 6
-7 -1 -3 1 -1 -0 -2 -5 -7 -10 5 9 6 2 -1 -2 -2 2 2 -1 -3 -3 0 -3 -3 -1 -0 -1 -4 1 3 -3 -3 1 3 1 -3 -5 -2 -1 -3 -2 -1 1 2 1 0 0 2
-3 -3 -0 -1 -2 4 1 -9 -7 -0 -6 -3 6 4 -0 -1 3 -2 -4 -2 -1 -3 -1 -0 1 -2 -3 -5 -4 -1 -3 -1 2 -2 2 -1 -3 -2 -2 -1 -2 -2 -2 0 2 0 1 0 1
-3 2 -2 -3 -4 1 2 -4 4 -4 -3 -9 -10 -4 2 -0 -1 2 2 3 5 3 2 2 -1 -1 -2 -1 -2 -2 -2 -1 -1 -1 0 2 3 1 -4 -2 -2 -1 0 -0 0 2 2 2 0
0 -4 -1 -1 -0 5 0 -0 8 3 -2 -16 0 -5 -5 -1 -2 -1 0 -0 -1 -0 2 -0 -3 -0 -1 -1 -2 -4 -3 1 0 1 -1 -0 -2 -1 -3 -3 -2 -1 -1 0 1 2 2 2 3
1 0 0 1 2 -3 2 -7 2 -0 10 13 9 -1 -0 -2 2 -2 -1 -1 0 -0 -3 -3 -0 -1 -3 -1 -3 -3 -1 1 1 -1 -3 -2 -3 0 -4 -4 -3 -2 -1 -1 -3 -0 2 0 1
-1 -2 -6 -9 -7 -6 3 -0 -1 -0 10 -5 1 8 2 0 -1 -4 0 -3 -0 -1 -2 -2 -3 -5 -5 -6 -5 -4 -0 -1 -2 -2 -1 -3 2 -4 -1 -3 -6 -5 -3 -1 1 -1 -1 -0 0
-3 -3 -3 -1 -4 -7 -11 -1 -3 -10 -12 -10 2 -6 0 -1 4 1 -2 -2 -2 -5 -3 -3 -2 -2 -0 -1 -1 2 0 -1 -1 -2 -2 1 -3 -1 1 -1 -3 -4 -4 -6 -3 1 1 0 0
-1 -1 -2 -2 -4 1 4 -4 -4 -7 -1 2 1 -1 -2 -4 0 1 -2 -1 -2 -4 -1 0 1 -3 -5 -2 -1 -3 -6 -3 -1 -0 -0 1 -1 -0 -1 -0 -1 -7 -6 -2 -0 -0 2 1 -2
Height
5892 5890 5890 5890 5891 5887 5884 5884 5883 5883 5882 5879 5879 5877 5873 5869 5867 5867 5862 5859 5857 5855 5853 5851 5848 5846 5844 5842 5839 5837 5836 5834 5833 5831 5830 5828 5828 5826 5825 5825 5825 5825 5825 5825 5826 5827 5829 5830 5831
5891 5889 5888 5887 5886 5884 5882 5882 5881 5879 5879 5877 5875 5872 5870 5867 5864 5861 5858 5855 5853 5850 5847 5844 5841 5838 5836 5833 5832 5829 5827 5825 5824 5823 5822 5821 5820 5819 5818 5817 5816 5817 5816 5817 5818 5819 5820 5822 5823
5890 5888 5887 5886 5884 5883 5882 5880 5880 5879 5878 5875 5872 5869 5866 5863 5859 5855 5853 5849 5846 5843 5840 5837 5833 5830 5828 5825 5823 5821 5819 5817 5815 5814 5812 5811 5810 5809 5808 5808 5808 5807 5807 5808 5809 5812 5812 5813 5814
5889 5888 5887 5887 5886 5883 5882 5880 5878 5877 5873 5870 5867 5865 5863 5858 5855 5851 5847 5844 5840 5836 5833 5829 5825 5821 5817 5814 5812 5809 5807 5806 5804 5803 5802 5801 5800 5799 5799 5799 5798 5798 5798 5799 5800 5801 5802 5804 5804
5888 5886 5886 5884 5883 5883 5881 5878 5876 5873 5871 5868 5864 5860 5857 5853 5849 5845 5841 5837 5832 5828 5822 5818 5815 5811 5809 5805 5802 5798 5795 5793 5791 5789 5788 5787 5787 5786 5786 5787 5787 5788 5788 5789 5790 5791 5792 5792 5791
5886 5885 5886 5885 5883 5882 5879 5876 5872 5870 5867 5864 5860 5856 5852 5847 5841 5837 5833 5827 5822 5817 5814 5808 5804 5799 5794 5791 5787 5785 5781 5779 5776 5775 5774 5772 5771 5772 5772 5772 5774 5775 5776 5778 5779 5780 5782 5783 5782
5887 5885 5885 5885 5883 5880 5876 5873 5869 5865 5860 5857 5853 5848 5844 5839 5833 5827 5821 5817 5812 5806 5801 5796 5789 5784 5780 5775 5771 5768 5765 5762 5759 5757 5756 5756 5755 5755 5756 5757 5757 5759 5761 5763 5765 5767 5769 5772 5773
5886 5884 5882 5882 5881 5879 5873 5869 5866 5862 5857 5852 5847 5841 5836 5829 5823 5818 5812 5805 5798 5792 5785 5780 5773 5769 5765 5760 5753 5749 5744 5741 5739 5737 5735 5736 5737 5736 5737 5739 5739 5742 5745 5747 5749 5751 5755 5758 5761
5884 5881 5879 5878 5877 5875 5871 5866 5861 5855 5850 5845 5840 5834 5826 5819 5813 5806 5800 5792 5785 5778 5770 5764 5757 5752 5745 5739 5733 5727 5723 5720 5715 5713 5712 5710 5712 5714 5715 5718 5720 5723 5726 5729 5732 5735 5738 5743 5747
5884 5880 5877 5875 5872 5870 5867 5861 5856 5851 5845 5839 5832 5823 5815 5808 5802 5795 5787 5780 5772 5764 5756 5747 5738 5731 5724 5717 5712 5704 5699 5696 5692 5689 5687 5686 5686 5689 5690 5693 5697 5700 5705 5708 5712 5717 5721 5725 5730
5882 5880 5877 5873 5869 5864 5859 5854 5849 5844 5838 5833 5825 5817 5809 5800 5792 5784 5775 5766 5756 5747 5738 5729 5721 5711 5702 5696 5690 5683 5676 5670 5666 5664 5663 5660 5661 5663 5664 5667 5669 5674 5679 5686 5690 5696 5701 5706 5712
5880 5877 5873 5869 5865 5861 5855 5849 5842 5836 5830 5824 5816 5806 5797 5789 5780 5770 5759 5747 5737 5727 5716 5708 5702 5696 5690 5683 5677 5671 5664 5660 5654 5645 5639 5635 5637 5637 5640 5641 5645 5649 5653 5659 5666 5673 5679 5685 5691
5876 5873 5869 5865 5861 5855 5848 5843 5837 5831 5823 5815 5805 5794 5786 5776 5765 5752 5739 5728 5717 5708 5702 5696 5691 5685 5677 5669 5664 5657 5650 5645 5640 5634 5628 5621 5618 5617 5614 5616 5618 5622 5626 5632 5638 5646 5654 5663 5670
5872 5869 5864 5861 5855 5849 5843 5837 5830 5823 5814 5805 5794 5782 5772 5760 5746 5733 5720 5712 5704 5698 5693 5688 5682 5675 5667 5660 5653 5646 5638 5631 5625 5620 5615 5608 5603 5598 5597 5596 5594 5596 5596 5602 5610 5619 5626 5637 5645
5866 5863 5860 5856 5851 5845 5837 5830 5822 5813 5805 5795 5781 5771 5759 5745 5732 5717 5707 5700 5696 5691 5686 5677 5671 5666 5659 5651 5644 5637 5629 5621 5613 5606 5601 5596 5590 5585 5579 5576 5576 5575 5573 5576 5582 5591 5598 5609 5619
5861 5857 5854 5848 5840 5834 5827 5818 5812 5804 5798 5785 5773 5763 5748 5733 5718 5704 5697 5693 5689 5681 5674 5668 5662 5655 5649 5642 5636 5628 5620 5612 5603 5594 5586 5580 5575 5571 5567 5563 5560 5558 5557 5556 5558 5563 5570 5581 5592
5856 5849 5842 5837 5833 5827 5819 5813 5806 5799 5790 5778 5766 5751 5736 5718 5702 5695 5691 5686 5679 5671 5666 5661 5653 5646 5640 5633 5627 5619 5612 5603 5594 5586 5576 5568 5560 5555 5551 5548 5545 5540 5540 5542 5541 5542 5545 5551 5564
5853 5846 5839 5834 5828 5822 5815 5809 5801 5795 5784 5770 5754 5738 5719 5704 5693 5690 5685 5678 5670 5664 5659 5652 5645 5637 5631 5622 5616 5610 5603 5595 5586 5577 5568 5560 5552 5544 5537 5534 5530 5525 5522 5523 5522 5523 5523 5528 5535
5851 5844 5836 5829 5824 5820 5814 5806 5796 5788 5775 5760 5742 5724 5706 5695 5689 5683 5677 5670 5665 5659 5652 5645 5639 5630 5621 5614 5607 5601 5594 5586 5577 5568 5558 5550 5541 5533 5524 5518 5513 5509 5507 5505 5504 5504 5506 5509 5515
5847 5840 5832 5825 5822 5815 5808 5800 5791 5780 5765 5747 5730 5713 5697 5688 5684 5679 5673 5667 5660 5653 5646 5640 5630 5622 5614 5606 5599 5592 5585 5576 5568 5559 5550 5540 5532 5523 5514 5504 5497 5492 5489 5489 5489 5489 5490 5493 5496
5843 5837 5832 5825 5818 5810 5802 5796 5784 5769 5751 5735 5719 5701 5690 5683 5680 5676 5670 5664 5656 5649 5642 5633 5624 5616 5606 5596 5590 5583 5575 5566 5557 5549 5540 5531 5522 5512 5503 5493 5484 5477 5473 5474 5475 5475 5477 5479 5483
5841 5835 5828 5821 5814 5806 5797 5791 5776 5759 5744 5728 5711 5695 5687 5683 5678 5671 5664 5659 5652 5645 5635 5626 5617 5607 5598 5590 5582 5573 5563 5555 5545 5538 5531 5522 5513 5503 5492 5482 5471 5464 5459 5459 5461 5463 5464 5467 5471
5840 5832 5824 5818 5811 5802 5793 5779 5768 5754 5740 5726 5709 5691 5684 5678 5671 5667 5661 5654 5646 5638 5630 5622 5613 5603 5594 5583 5573 5563 5554 5544 5536 5528 5521 5514 5505 5494 5483 5472 5461 5453 5448 5446 5447 5449 5452 5454 5458
5835 5828 5822 5815 5806 5797 5785 5774 5763 5748 5733 5717 5699 5686 5681 5676 5671 5665 5657 5651 5643 5637 5629 5620 5610 5599 5587 5576 5564 5553 5542 5534 5528 5520 5513 5506 5496 5487 5477 5464 5453 5445 5438 5435 5435 5436 5439 5443 5446
5834 5828 5820 5812 5801 5791 5779 5769 5756 5739 5721 5705 5691 5680 5674 5670 5666 5661 5657 5651 5643 5633 5624 5614 5603 5592 5581 5569 5556 5544 5534 5524 5518 5512 5506 5499 5492 5483 5471 5458 5446 5437 5429 5425 5424 5426 5428 5431 5435
5831 5822 5813 5805 5798 5790 5777 5763 5752 5734 5716 5697 5681 5675 5671 5666 5661 5656 5651 5644 5636 5627 5618 5608 5597 5586 5574 5561 5548 5535 5524 5517 5510 5504 5499 5492 5485 5477 5466 5453 5441 5431 5421 5417 5416 5417 5420 5421 5424
5826 5819 5811 5804 5793 5783 5773 5761 5749 5730 5715 5699 5682 5673 5670 5667 5662 5657 5651 5643 5634 5624 5614 5602 5591 5579 5567 5554 5541 5530 5520 5512 5505 5500 5495 5487 5481 5473 5462 5450 5439 5428 5417 5412 5411 5412 5413 5413 5415
5825 5817 5807 5798 5788 5779 5771 5758 5747 5733 5714 5696 5680 5672 5668 5666 5662 5655 5649 5641 5632 5621 5611 5600 5588 5576 5562 5548 5536 5526 5517 5509 5503 5497 5491 5484 5478 5470 5461 5450 5439 5428 5418 5412 5409 5407 5407 5407 5408
5825 5815 5806 5797 5788 5775 5763 5757 5741 5722 5704 5688 5672 5666 5663 5662 5660 5654 5647 5638 5628 5619 5611 5600 5589 5575 5559 5545 5534 5525 5517 5509 5502 5495 5488 5481 5475 5468 5459 5449 5440 5430 5421 5413 5408 5405 5402 5402 5401
5823 5815 5805 5794 5785 5775 5763 5752 5736 5716 5700 5683 5669 5665 5663 5660 5656 5651 5645 5638 5629 5622 5612 5601 5587 5573 5558 5545 5536 5526 5517 5509 5501 5494 5486 5480 5475 5467 5457 5448 5440 5431 5423 5414 5408 5404 5401 5398 5397